Waarnemingen

Advertentie
Mijn weer
Biarritz, Frankrijk (7602): temperatuur & dauwpunt: 15.10.2017 03:00:00 - 21.10.2017 03:00:00 (CEST)Biarritz, Frankrijk (7602): temperatuur 5cm: 15.10.2017 03:00:00 - 21.10.2017 03:00:00 (CEST)Biarritz, Frankrijk (7602): temperatuur -20cm & temperatuur -100cm: 15.10.2017 03:00:00 - 21.10.2017 03:00:00 (CEST)Biarritz, Frankrijk (7602): windsnelheid & windstoten: 15.10.2017 03:00:00 - 21.10.2017 03:00:00 (CEST)Biarritz, Frankrijk (7602): windrichting: 15.10.2017 03:00:00 - 21.10.2017 03:00:00 (CEST)Biarritz, Frankrijk (7602): luchtdruk: 15.10.2017 03:00:00 - 21.10.2017 03:00:00 (CEST)Biarritz, Frankrijk (7602): zicht: 15.10.2017 03:00:00 - 21.10.2017 03:00:00 (CEST)Biarritz, Frankrijk (7602): Zonneschijnduur: 15.10.2017 03:00:00 - 21.10.2017 03:00:00 (CEST)Biarritz, Frankrijk (7602): neerslag: 15.10.2017 03:00:00 - 21.10.2017 03:00:00 (CEST)
Datum & Tijd tt [°C] td [°C] tt 5cm [°C] tt -20cm [°C] tt -100cm [°C] ff [km/u] ff [kn] fx [km/u] fx [kn] dd ppp [hPa] vv [km] sd [min] rr [mm]
21.10.2017 03:00:00 20,7 11,6 19,3 18,2 18,6 18 10 36 20 Z 1016,3 60 0 0,0
21.10.2017 02:00:00 20,9 11,2 18,9 18,3 18,6 13 7 31 17 ZZW 1016,1 10 0 0,0
21.10.2017 01:00:00 20,2 11,4 18,4 18,4 18,7 9 5 18 10 Z 1016,0 60 0 0,0
21.10.2017 00:00:00 20,0 11,5 17,8 18,4 18,6 9 5 16 8 Z 1016,2 10 0 0,0
20.10.2017 23:00:00 20,0 11,7 17,0 18,6 18,7 8 4 14 8 Z 1016,4 10 0 0,0
20.10.2017 22:00:00 19,0 12,0 14,9 18,7 18,7 8 4 13 7 ZZO 1016,6 60 0 0,0
20.10.2017 21:00:00 17,3 14,4 15,5 18,8 18,7 6 3 13 7 ZO 1016,4 60 0 0,0
20.10.2017 20:00:00 18,0 14,5 16,0 18,7 18,7 5 3 20 11 ZO 1016,6 60 0 0,0
20.10.2017 19:00:00 20,0 15,0 19,1 18,7 18,7 8 4 18 10 O 1016,2 60 52 0,0
20.10.2017 18:00:00 22,1 15,4 23,9 18,6 18,7 10 6 16 9 O 1016,3 58 60 0,0
20.10.2017 17:00:00 23,2 14,7 26,2 18,3 18,7 8 4 22 12 ONO 1016,6 55 60 0,0
20.10.2017 16:00:00 22,5 16,3 26,1 18,1 18,7 8 4 13 7 ONO 1016,6 10 58 0,0
20.10.2017 15:00:00 22,7 14,3 25,5 17,8 18,7 4 2 14 8 OZO 1016,7 42 60 0,0
20.10.2017 14:00:00 21,7 15,5 22,3 17,6 18,7 8 4 16 8 O 1017,2 10 38 0,0
20.10.2017 13:00:00 19,8 15,6 19,5 17,4 18,7 5 3 9 5 ZO 1018,0 51 0 0,0
20.10.2017 12:00:00 18,1 14,4 18,6 17,4 18,7 4 2 9 5 - 1018,0 10 0 0,0
20.10.2017 11:00:00 17,4 13,7 17,4 17,3 18,7 6 3 10 5 ZZO 1017,7 60 0 0,0
20.10.2017 10:00:00 16,3 13,4 15,6 17,4 18,7 2 1 8 4 ZZO 1017,6 58 0 0,0
20.10.2017 09:00:00 15,7 11,5 14,7 17,4 18,7 6 3 8 4 Z 1017,0 60 0 0,0
20.10.2017 08:00:00 14,9 12,4 13,2 17,4 18,7 6 3 9 5 Z 1016,4 60 0 0,0
20.10.2017 07:00:00 14,3 11,6 12,8 17,5 18,7 8 4 10 5 ZZO 1016,0 60 0 0,0
20.10.2017 06:00:00 15,6 11,8 13,1 17,6 18,7 6 3 12 7 ZW 1015,3 19 0 0,0
20.10.2017 05:00:00 14,6 10,4 12,4 17,7 18,8 8 4 9 5 ZW 1015,3 10 0 0,0
20.10.2017 04:00:00 14,3 10,5 12,7 17,7 18,8 6 4 9 5 Z 1015,0 60 0 0,0
20.10.2017 03:00:00 13,7 10,9 10,9 17,8 18,7 5 3 9 5 Z 1014,6 10 0 0,0
20.10.2017 02:00:00 14,4 11,0 12,6 17,9 18,8 3 2 7 4 ZZW 1014,0 60 0 0,0
20.10.2017 01:00:00 14,3 11,4 12,4 18,1 18,8 5 3 9 5 ZZO 1013,6 56 0 0,0
20.10.2017 00:00:00 14,2 12,1 12,3 18,2 18,8 5 3 12 6 Z 1013,4 18 0 0,0
19.10.2017 23:00:00 14,2 12,4 12,8 18,3 18,8 7 4 12 6 ZZO 1013,1 17 0 0,0
19.10.2017 22:00:00 14,6 12,6 12,6 18,4 18,8 6 4 10 5 ZZO 1012,6 34 0 0,0
19.10.2017 21:00:00 14,6 12,6 13,0 18,5 18,8 6 4 14 8 ZO 1012,3 42 0 0,0
19.10.2017 20:00:00 15,1 12,6 13,2 18,6 18,8 9 5 13 7 OZO 1012,4 52 0 0,0
19.10.2017 19:00:00 17,3 12,4 15,9 18,5 18,8 4 2 16 9 NNO 1011,7 57 38 0,0
19.10.2017 18:00:00 18,5 12,7 21,2 18,4 18,8 9 5 16 9 NNW 1011,5 48 60 0,0
19.10.2017 17:00:00 18,7 12,7 22,6 18,2 18,8 8 4 17 9 NNW 1011,1 20 60 0,0
19.10.2017 16:00:00 19,0 12,3 23,8 18,0 18,8 9 5 16 9 NNW 1011,1 45 60 0,0
19.10.2017 15:00:00 18,6 12,6 20,4 17,8 18,8 10 6 17 9 WNW 1011,1 50 42 0,0
19.10.2017 14:00:00 18,3 12,9 18,6 17,7 18,8 9 5 17 9 W 1011,8 10 42 0,0
19.10.2017 13:00:00 18,1 13,0 19,1 17,6 18,8 12 7 22 12 W 1012,4 57 45 0,0
19.10.2017 12:00:00 17,4 11,9 17,1 17,6 18,8 11 6 17 9 W 1012,5 10 37 0,0
19.10.2017 11:00:00 16,3 12,1 15,5 17,7 18,9 7 4 16 9 ZW 1012,0 27 16 0,0
19.10.2017 10:00:00 14,8 11,9 14,2 17,7 18,8 8 4 17 9 ZW 1011,6 60 0 0,0
19.10.2017 09:00:00 14,5 12,2 13,9 17,8 18,8 5 3 26 14 ZZW 1011,2 41 0 0,0
19.10.2017 08:00:00 14,5 12,4 14,2 17,9 18,9 9 5 24 13 WZW 1011,2 10 0 0,0
19.10.2017 07:00:00 15,0 12,7 14,5 17,9 18,8 11 6 22 12 WZW 1011,2 50 0 0,0
19.10.2017 06:00:00 14,9 12,4 14,1 18,0 18,8 7 4 18 10 ZW 1010,6 43 0 0,0
19.10.2017 05:00:00 14,4 12,4 13,3 18,1 18,9 8 4 13 7 ZW 1010,6 10 0 0,0
19.10.2017 04:00:00 14,5 12,7 13,6 18,1 18,9 6 3 16 8 ZW 1010,8 60 0 0,0
19.10.2017 03:00:00 14,3 13,2 13,9 18,2 18,8 6 4 19 10 ZW 1010,8 33 0 0,2
19.10.2017 02:00:00 14,5 13,5 14,0 18,3 18,8 8 5 20 11 ZW 1010,7 8 0 0,0
19.10.2017 01:00:00 15,1 13,8 14,2 18,4 18,9 8 5 23 12 ZW 1010,6 37 0 0,0
19.10.2017 00:00:00 14,7 13,6 13,9 18,4 18,9 11 6 24 13 ZW 1010,4 20 0 0,0
18.10.2017 23:00:00 14,2 13,2 13,6 18,6 18,9 4 2 9 5 ZZW 1010,3 20 0 0,2
18.10.2017 22:00:00 14,1 13,1 13,5 18,6 18,8 4 2 10 6 ZW 1010,0 30 0 0,0
18.10.2017 21:00:00 14,0 13,4 13,5 18,7 18,9 4 2 7 4 Z 1010,0 20 0 0,0
18.10.2017 20:00:00 14,2 13,6 13,8 18,8 18,9 5 3 9 5 Z 1009,9 20 0 0,0
18.10.2017 19:00:00 14,8 13,7 14,1 18,9 18,9 4 2 8 4 Z 1009,7 20 0 0,0
18.10.2017 18:00:00 14,7 13,4 13,9 19,0 18,9 5 3 29 16 ZW 1010,0 12 0 0,8
18.10.2017 17:00:00 14,6 13,1 14,1 19,0 18,8 21 11 41 22 W 1009,5 10 0 0,8
18.10.2017 16:00:00 15,2 13,6 14,8 18,9 18,8 31 17 47 26 W 1010,0 10 0 1,2
18.10.2017 15:00:00 19,0 15,9 17,5 18,8 18,8 8 4 16 9 ZO 1008,3 14 0 0,2
18.10.2017 14:00:00 20,1 15,7 20,4 18,7 18,8 11 6 23 13 O 1008,4 10 12 0,0
18.10.2017 13:00:00 18,7 15,9 17,2 18,7 18,9 11 6 18 10 ONO 1009,8 20 0 0,0
18.10.2017 12:00:00 18,2 15,8 17,4 18,7 18,8 4 2 13 7 - 1010,4 10 0 1,0
18.10.2017 11:00:00 19,1 15,0 17,4 18,7 18,8 4 2 11 6 NNW 1010,7 33 13 0,0
18.10.2017 10:00:00 17,9 14,8 17,4 18,7 18,8 3 2 14 7 ONO 1011,3 29 0 0,0
18.10.2017 09:00:00 19,1 13,3 17,3 18,7 18,8 7 4 11 6 ZZO 1010,9 60 0 0,0
18.10.2017 08:00:00 18,7 13,3 17,0 18,8 18,8 2 1 18 10 ZZW 1011,0 57 0 0,0
18.10.2017 07:00:00 19,0 13,2 16,4 18,9 18,9 9 5 18 10 Z 1011,3 58 0 0,0
18.10.2017 06:00:00 18,4 13,7 15,7 18,9 18,8 11 6 14 8 O 1011,8 10 0 0,0
18.10.2017 05:00:00 18,4 13,5 15,9 19,0 18,8 9 5 25 13 ZO 1012,3 53 0 0,0
18.10.2017 04:00:00 18,4 15,6 16,5 19,0 18,8 10 6 26 14 Z 1012,8 14 0 0,4
18.10.2017 03:00:00 17,6 16,6 17,0 19,0 18,8 9 5 16 9 ZZO 1012,9 13 0 0,0
18.10.2017 02:00:00 18,2 17,7 17,1 19,1 18,8 5 3 12 7 O 1013,4 2,2 0 0,0
18.10.2017 01:00:00 18,6 17,9 17,3 19,2 18,8 2 1 8 4 W 1013,8 2,5 0 0,2
18.10.2017 00:00:00 18,0 17,0 17,2 19,2 18,8 4 2 8 4 Z 1014,4 7 0 0,0
17.10.2017 23:00:00 18,8 17,5 16,8 19,3 18,8 4 2 10 5 - 1014,6 8 0 0,0
17.10.2017 22:00:00 18,7 15,9 16,6 19,3 18,8 5 3 23 12 Z 1014,7 10 0 0,0
17.10.2017 21:00:00 19,8 14,2 16,4 19,3 18,8 16 9 24 13 NW 1014,5 10 0 1,4
17.10.2017 20:00:00 23,8 9,8 19,0 19,3 18,8 6 3 13 7 ZO 1014,1 59 0 0,0
17.10.2017 19:00:00 24,2 10,1 19,8 19,3 18,8 4 2 23 12 Z 1013,9 59 0 0,0
17.10.2017 18:00:00 25,6 9,4 24,6 19,2 18,8 11 6 31 17 Z 1013,6 10 0 0,0
17.10.2017 17:00:00 25,8 10,0 25,5 19,1 18,8 11 6 28 15 Z 1013,9 10 24 0,2
17.10.2017 16:00:00 25,3 10,3 25,1 19,0 18,8 13 7 42 23 Z 1014,5 10 3 0,0
17.10.2017 15:00:00 25,8 9,6 25,6 18,8 18,8 21 11 40 22 Z 1015,0 41 23 0,0
17.10.2017 14:00:00 25,7 11,8 27,3 18,7 18,8 16 8 39 21 Z 1016,0 30 50 0,0
17.10.2017 13:00:00 25,6 13,1 26,8 18,5 18,8 14 8 30 16 Z 1016,6 29 60 0,0
17.10.2017 12:00:00 23,9 12,2 22,4 18,5 18,8 15 8 33 18 Z 1017,1 10 48 0,0
17.10.2017 11:00:00 21,7 12,3 21,5 18,4 18,8 15 8 27 15 Z 1017,7 10 29 0,0
17.10.2017 10:00:00 18,1 16,1 14,6 18,5 18,8 13 7 24 13 ZO 1018,0 10 60 0,0
17.10.2017 09:00:00 14,3 14,1 13,3 18,6 18,8 11 6 16 9 O 1018,2 1,4 16 0,0
17.10.2017 08:00:00 14,1 13,9 12,8 18,8 18,8 11 6 15 8 ONO 1018,3 0,7 0 0,0
17.10.2017 07:00:00 13,8 13,6 12,9 18,8 18,7 10 5 16 8 ONO 1018,4 0,5 0 0,0
17.10.2017 06:00:00 14,4 14,2 13,5 19,0 18,8 12 7 18 10 O 1018,7 0,2 0 0,2
17.10.2017 05:00:00 14,5 14,2 13,5 19,2 18,7 11 6 17 9 O 1019,2 0,2 0 0,0
17.10.2017 04:00:00 14,5 14,2 13,2 19,3 18,7 9 5 12 6 O 1020,1 3,5 0 0,0
17.10.2017 03:00:00 15,4 14,9 12,4 19,4 18,7 3 2 9 5 OZO 1021,1 0,9 0 0,0
17.10.2017 02:00:00 15,6 14,6 13,5 19,5 18,7 5 3 10 5 ZO 1021,6 9 0 0,0
17.10.2017 01:00:00 17,3 15,8 15,4 19,6 18,7 5 3 7 4 ZO 1022,4 11 0 0,0
17.10.2017 00:00:00 18,3 16,6 17,3 19,7 18,7 0 0 8 4 N 1023,0 9 0 0,0
16.10.2017 23:00:00 18,6 16,4 18,4 19,7 18,7 5 3 12 7 WZW 1023,4 10 0 0,0
16.10.2017 22:00:00 18,8 17,1 18,5 19,8 18,7 6 4 18 10 WZW 1023,3 10 0 0,0
16.10.2017 21:00:00 18,9 17,2 18,6 19,8 18,7 13 7 23 13 W 1023,5 9 0 0,0
16.10.2017 20:00:00 19,2 17,7 18,9 19,8 18,7 11 6 26 14 W 1023,6 9 0 0,0
16.10.2017 19:00:00 19,6 17,9 19,5 19,9 18,7 13 7 27 15 W 1023,1 10 0 0,0
16.10.2017 18:00:00 20,6 18,0 21,4 19,8 18,7 21 11 38 20 W 1022,8 10 55 0,0
16.10.2017 17:00:00 21,5 18,1 23,8 19,7 18,7 29 16 44 24 W 1022,5 4,9 60 0,0
16.10.2017 16:00:00 22,7 18,0 25,1 19,5 18,7 29 16 45 25 W 1022,3 5 60 0,0
16.10.2017 15:00:00 29,0 13,6 31,3 19,2 18,7 12 7 36 19 ZW 1021,4 27 60 0,0
16.10.2017 14:00:00 28,2 12,5 31,0 19,0 18,7 16 8 41 22 Z 1021,0 22 60 0,0
16.10.2017 13:00:00 28,4 12,3 30,4 18,9 18,7 13 7 31 17 Z 1021,3 20 60 0,0
16.10.2017 12:00:00 27,3 12,9 28,8 18,7 18,6 9 5 37 20 WZW 1021,1 37 60 0,0
16.10.2017 11:00:00 25,7 12,9 26,3 18,7 18,6 15 8 35 19 Z 1020,6 38 60 0,0
16.10.2017 10:00:00 23,9 12,8 22,3 18,8 18,6 13 7 35 19 Z 1020,2 20 60 0,0
16.10.2017 09:00:00 22,6 12,8 19,3 18,9 18,7 10 5 29 16 Z 1020,0 46 17 0,0
16.10.2017 08:00:00 22,3 12,8 19,9 18,9 18,6 7 4 18 10 ZW 1019,7 55 0 0,0
16.10.2017 07:00:00 23,1 13,0 20,0 19,0 18,7 5 3 19 11 ZW 1019,4 53 0 0,0
16.10.2017 06:00:00 22,7 12,9 19,0 19,1 18,6 3 2 14 8 OZO 1019,3 54 0 0,0
16.10.2017 05:00:00 23,3 12,9 20,7 19,1 18,6 4 2 28 15 - 1019,1 10 0 0,0
16.10.2017 04:00:00 24,5 13,4 21,7 19,2 18,6 9 5 30 16 Z 1019,1 57 0 0,0
16.10.2017 03:00:00 24,5 13,1 22,5 19,3 18,6 13 7 32 17 Z 1019,5 55 0 0,0
16.10.2017 02:00:00 24,4 12,7 22,2 19,4 18,6 13 7 30 16 Z 1019,6 10 0 0,0
16.10.2017 01:00:00 24,2 13,4 21,3 19,5 18,6 13 7 34 18 Z 1019,9 55 0 0,0
16.10.2017 00:00:00 23,6 13,5 21,5 19,6 18,6 11 6 22 12 Z 1020,1 56 0 0,0
15.10.2017 23:00:00 23,4 14,1 20,9 19,7 18,6 12 7 25 13 Z 1020,1 47 0 0,0
15.10.2017 22:00:00 23,3 14,6 21,6 19,8 18,6 11 6 23 12 Z 1020,3 47 0 0,0
15.10.2017 21:00:00 24,4 14,5 22,5 19,8 18,6 10 5 21 12 ZZO 1020,2 51 0 0,0
15.10.2017 20:00:00 24,5 15,1 21,0 19,8 18,6 13 7 24 13 Z 1020,2 49 0 0,0
15.10.2017 19:00:00 25,2 15,8 23,1 19,8 18,6 9 5 18 10 ZO 1020,1 10 48 0,0
15.10.2017 18:00:00 27,3 15,6 28,6 19,6 18,6 9 5 19 10 Z 1019,9 10 60 0,0
15.10.2017 17:00:00 28,1 15,7 30,7 19,4 18,6 10 5 24 13 ZZO 1019,8 21 60 0,0
15.10.2017 16:00:00 28,4 15,3 31,0 19,2 18,6 13 7 29 15 Z 1020,3 10 60 0,0
15.10.2017 15:00:00 27,9 15,2 30,0 18,9 18,5 12 7 33 18 Z 1020,7 23 60 0,0
15.10.2017 14:00:00 26,7 14,8 29,0 18,8 18,5 15 8 41 22 Z 1021,4 48 60 0,0
15.10.2017 13:00:00 25,9 15,0 28,1 18,6 18,5 12 7 35 19 Z 1021,9 36 60 0,0
15.10.2017 12:00:00 25,1 15,1 26,5 18,5 18,6 16 8 41 22 Z 1021,9 34 60 0,0
15.10.2017 11:00:00 24,0 15,0 24,6 18,5 18,5 14 8 39 21 Z 1021,8 50 60 0,0
15.10.2017 10:00:00 22,9 14,5 21,9 18,5 18,5 14 8 40 21 Z 1021,8 54 60 0,0
15.10.2017 09:00:00 22,1 14,2 20,7 18,6 18,5 13 7 36 20 Z 1021,4 34 19 0,0
15.10.2017 08:00:00 21,9 14,3 20,6 18,6 18,5 13 7 27 15 Z 1021,4 44 0 0,0
15.10.2017 07:00:00 22,4 14,5 20,7 18,7 18,5 14 8 34 19 Z 1021,2 45 0 0,0
15.10.2017 06:00:00 22,2 14,6 20,8 18,7 18,5 13 7 37 20 Z 1021,1 46 0 0,0
15.10.2017 05:00:00 22,7 14,5 21,1 18,8 18,5 13 7 35 19 Z 1021,1 45 0 0,0
15.10.2017 04:00:00 22,8 14,6 20,7 18,9 18,5 11 6 26 14 Z 1021,3 44 0 0,0
15.10.2017 03:00:00 22,6 14,4 20,7 19,0 18,5 10 5 23 12 Z 1021,5 44 0 0,0

tt = temperatuur
td = dauwpunt
tt 5cm = temperatuur 5cm
tt -20cm = temperatuur -20cm
tt -100cm = temperatuur -100cm
ff = windsnelheid
fx = windstoten
dd = windrichting
ppp = luchtdruk
vv = zicht
sd = Zonneschijnduur
rr = neerslag

Weerstations in de omgeving